User: anonymous   Login
Location: Bühlhof
(48.7849°N, 8.6361°E)
Time: 11:02:29
(UTC+00:00)
Language:

PSLV R/B - Orbit

View from above orbital plane
View from above orbital plane
View from above satellite
View from above satellite

Ground track
Ground track

The orbit is defined by the following mean orbital elements,

1 29713U          26071.99660725 +.00000000 +00000-0 +25654-3 0 00000
2 29713  98.0297 101.5957 0020586  64.6752 295.6599 14.97939545    09
Epoch (UTC): 12 March 2026 23:55:06
Eccentricity: 0.0020586
inclination: 98.0297°
perigee height: 559 km
apogee height: 588 km
right ascension of ascending node: 101.5957°
argument of perigee: 64.6752°
revolutions per day: 14.97939545
mean anomaly at epoch: 295.6599°

The dashed part of the orbit path shows where the satellite is in the earth's shadow,  

DLR